Location: Country Club Park
(34.0503°N, 118.3212°W)
Time: 08:58:50
(UTC+00:00)

N. Korean satellite - Visible Passes

Search period start: 05 October 2022 00:00
Search period end: 15 October 2022 00:00
Orbit: 426 x 467 km, 97.3° (Epoch: 04 October)

Date Brightness Start Highest point End Pass type
(mag) Time Alt. Az. Time Alt. Az. Time Alt. Az.
05 Oct 6.7 13:24:52 10° N 13:27:58 43° WNW 13:31:05 10° SSW visible
06 Oct 7.5 12:48:50 10° NNE 12:51:59 45° E 12:55:07 10° S visible
07 Oct 9.7 12:14:07 10° ENE 12:15:46 13° E 12:17:24 10° SE visible
08 Oct 6.2 13:09:06 10° N 13:12:22 81° WNW 13:15:38 10° SSW visible
09 Oct 8.8 12:33:20 10° NE 12:36:07 25° E 12:38:54 10° SSE visible
11 Oct 7.2 12:52:57 10° NNE 12:56:10 53° E 12:59:24 10° S visible
12 Oct 9.7 12:17:41 10° ENE 12:19:40 15° E 12:21:40 10° SE visible
13 Oct 6.2 13:12:39 10° N 13:15:56 71° WNW 13:19:12 10° SSW visible
14 Oct 8.5 12:36:29 10° NE 12:39:23 28° E 12:42:19 10° SSE visible
